[[{"header":{"parameterUnit":"m.s-1","parameterCategory":1,"la1":30.2991,"la2":30.254,"lo1":-89.0895,"lo2":-89.0444,"dy":0.0017,"dx":0.0017,"nx":28,"ny":28,"refTime":"2023-11-14T09:00:00:Z","depth":0,"parameterNumber":2,"parameterNumberName":"U-component_of_WINDS"},"data":[0,0,0,0,0,0,0,0,0,0,0,0,0,0,0,0,0,0,0,0,0,0,0,0,0,0,0,0,0,0,0,0,0,0,0,0,0,0,0,0,0,0,0,0,0,0,0,0,0,0,0,0,0,0,0,0,0,0,-9.0885,-9.0888,0,-9.1235,-9.1239,-9.1242,-9.1119,-9.1111,-9.1104,-9.1096,-9.1462,-9.1479,-9.1496,0,0,0,0,0,0,0,0,0,0,0,0,0,-9.0117,-9.0132,-9.0884,-9.0889,-9.0893,-9.1234,-9.1239,-9.1244,-9.1121,-9.1111,-9.1102,-9.1093,-9.1457,-9.1477,-9.1497,0,0,0,0,0,0,0,0,0,0,0,0,0,-9.0457,-9.0136,-9.0883,-9.0873,-9.0875,-9.1233,-9.1239,-9.1245,-9.1123,-9.1111,-9.1099,-9.1088,-9.145,-9.1475,-9.15,-9.1892,0,0,-9.1578,-9.1589,0,0,0,0,0,0,0,0,-9.0438,-9.0485,-9.087,-9.0874,-9.0877,-9.1121,-9.1102,-9.1462,-9.1126,-9.1029,-9.1096,-9.1083,-9.1359,-9.1391,-9.1483,-9.1909,-9.1925,-9.158,-9.1596,-9.1607,-9.1614,0,0,0,0,0,0,0,-9.0415,-9.047,-9.1023,-9.0876,-9.088,-9.0853,-9.0888,-9.117,-9.1256,-9.1036,-9.1028,-9.1071,-9.1359,-9.1458,-9.149,-9.193,-9.158,-9.1602,-9.1618,-9.1628,-9.27,-9.2712,0,0,0,0,0,0,-9.0388,-9.0451,-9.1012,-9.1033,-9.0624,-9.0876,-9.0916,-9.1055,-9.1252,-9.1271,-9.1081,-9.1064,-9.142,-9.1461,-9.1503,-9.1978,-9.1606,-9.163,-9.1645,-9.2687,-9.2702,-9.2717,0,0,0,0,0,0,-9.0372,-9.0439,-9.0998,-9.074,-9.0809,-9.0902,-9.1059,-9.1068,-9.1167,-9.1285,-9.1301,-9.1166,-9.1413,-9.1467,-9.1796,-9.1988,-9.1642,-9.1665,-9.2671,-9.2691,-9.271,-9.2929,0,0,0,0,0,0,-9.0351,-9.0434,-9.0582,-9.0744,-9.0823,-9.1284,-9.1071,-9.1083,-9.1211,-9.1192,-9.137,-9.1388,-9.1408,-9.1759,-9.1822,-9.2017,-9.1685,-9.2654,-9.268,-9.2703,-9.2905,-9.2953,-9.2995,0,0,0,0,0,-9.0324,-9.0631,-9.059,-9.0659,-9.101,-9.1295,-9.134,-9.1355,-9.1227,-9.1378,-9.1454,-9.1382,-9.1956,-9.1794,-9.1863,-9.207,-9.2642,-9.2673,-9.2701,-9.2885,-9.2944,-9.2994,0,0,0,0,0,0,-9.0491,-9.0652,-9.0609,-9.0977,-9.1123,-9.1273,-9.1464,-9.1417,-9.1604,-9.1579,-9.1591,-9.1632,-9.1972,-9.2053,-9.1869,-9.2461,-9.2281,-9.2326,-9.2396,-9.2454,-9.2498,-9.2473,-9.1706,0,0,0,0,0,-9.057,-9.0786,-9.0915,-9.1228,-9.1303,-9.1372,-9.1496,-9.1495,-9.1648,-9.1709,-9.1809,-9.1963,-9.2178,-9.2319,-9.2523,-9.2915,-9.2954,-9.3091,-9.3136,-9.3173,-9.3213,-9.343,-9.3494,-9.2814,-9.2814,-9.2813,0,0,-9.0737,-9.0851,-9.0987,-9.1265,-9.1377,-9.1604,-9.1425,-9.1671,-9.184,-9.1747,-9.2065,-9.2144,-9.2316,-9.2679,-9.2844,-9.2758,-9.3409,-9.321,-9.3239,-9.3259,-9.3467,-9.3531,-9.3588,-9.2834,-9.283,-9.2827,0,0,-9.1157,-9.1264,-9.1537,-9.1654,-9.1827,-9.1871,-9.1937,-9.2096,-9.2144,-9.2462,-9.2399,-9.2601,-9.297,-9.3096,-9.3209,-9.3679,-9.3622,-9.3745,-9.3983,-9.4194,-9.4248,-9.4295,-9.4467,-9.4528,-9.3784,-9.3785,-9.3785,0,-9.1344,-9.1679,-9.1685,-9.1938,-9.2063,-9.1987,-9.2267,-9.2381,-9.2613,-9.2703,-9.2601,-9.3065,-9.3175,-9.3568,-9.3683,-9.3775,-9.3854,-9.3727,-9.4239,-9.4287,-9.4332,-9.4496,-9.456,-9.3799,-9.3797,-9.3796,-9.3794,0,-9.1902,-9.2137,-9.2337,-9.2562,-9.2709,-9.2974,-9.3023,-9.3172,-9.3158,-9.3213,-9.3541,-9.367,-9.3901,-9.3993,-9.3982,-9.4387,-9.4328,-9.4233,-9.4053,-9.441,-9.4565,-9.4628,-9.3819,-9.3814,-9.381,-9.3806,0,0,-9.2439,-9.2663,-9.2737,-9.284,-9.3025,-9.3208,-9.3471,-9.3694,-9.3824,-9.3987,-9.421,-9.4525,-9.4439,-9.4567,-9.4569,-9.4754,-9.5124,-9.4637,-9.4641,-9.4727,-9.5583,-9.5656,-9.5728,-9.5085,-9.5097,-9.5107,-9.557,0,-9.2877,-9.3336,-9.335,-9.3771,-9.399,-9.3922,-9.4152,-9.4292,-9.4351,-9.4548,-9.4613,-9.4838,-9.4705,-9.4782,-9.4962,-9.504,-9.5296,-9.5007,-9.5298,-9.5308,-9.526,-9.5809,-9.5886,-9.6317,-9.563,-9.564,-9.5647,0,-9.345,-9.363,-9.4073,-9.423,-9.4322,-9.4528,-9.4736,-9.4923,-9.5082,-9.5112,-9.5256,-9.5232,-9.5504,-9.5312,-9.569,-9.5493,-9.5612,-9.5669,-9.5686,-9.5717,-9.5502,-9.5858,-9.6454,-9.6521,-9.5742,-9.5734,-9.5727,0,-9.3803,-9.4155,-9.4467,-9.4556,-9.4746,-9.4893,-9.4979,-9.5126,-9.5261,-9.5443,-9.5531,-9.5743,-9.5861,-9.6027,-9.6062,-9.5918,-9.6442,-9.6252,-9.6479,-9.6479,-9.6595,-9.6588,-9.7223,-9.6666,-9.6665,-9.6663,-9.6662,0,-9.4293,-9.4568,-9.4628,-9.482,-9.5127,-9.5141,-9.5445,-9.5521,-9.5653,-9.5861,-9.5815,-9.6012,-9.6044,-9.625,-9.6279,-9.659,-9.6642,-9.6677,-9.6683,-9.6684,-9.668,-9.6765,-9.6738,-9.6681,-9.6677,-9.6673,-9.6671,0,-9.474,-9.479,-9.5126,-9.5278,-9.5323,-9.5543,-9.5674,-9.586,-9.5913,-9.6178,-9.6241,-9.6326,-9.6566,-9.6616,-9.6901,-9.692,-9.7292,-9.7265,-9.7238,-9.7237,-9.7462,-9.7442,-9.8177,-9.8276,-9.765,-9.7656,-9.7661,0,-9.5051,-9.5261,-9.5435,-9.557,-9.5663,-9.5881,-9.6018,-9.604,-9.6185,-9.6384,-9.6547,-9.6781,-9.697,-9.7357,-9.7446,-9.7665,-9.7646,-9.7889,-9.7679,-9.7675,-9.7655,-9.7644,-9.7667,-9.793,-9.7937,-9.7942,-9.7947,0,-9.56,-9.5615,-9.5812,-9.6022,-9.6186,-9.6351,-9.6509,-9.6623,-9.6666,-9.6832,-9.7076,-9.7222,-9.7512,-9.7748,-9.7966,-9.8058,-9.8014,-9.8011,-9.8076,-9.8082,-9.8059,-9.8079,-9.7352,-9.7996,-9.7991,-9.7987,-9.7984,-9.7982,-9.5991,-9.6176,-9.6328,-9.6551,-9.6672,-9.682,-9.7003,-9.7079,-9.7282,-9.7519,-9.7519,-9.7787,-9.7944,-9.8233,-9.8338,-9.855,-9.8475,-9.8568,-9.8592,-9.8616,-9.8639,-9.8022,-9.859,-9.8588,-9.8587,-9.8586,-9.8585,0,-9.6541,-9.6636,-9.684,-9.7062,-9.7239,-9.7176,-9.7348,-9.7501,-9.7736,-9.7885,-9.8072,-9.8354,-9.8582,-9.8689,-9.8915,-9.9065,-9.905,-9.9124,-9.9115,-9.9138,-9.8691,-9.8614,-9.9132,-9.9132,-9.9132,-9.9132,-9.9132,-9.9132,-9.6848,-9.7159,-9.7192,-9.7563,-9.7656,-9.7916,-9.802,-9.8159,-9.8278,-9.8594,-9.8783,-9.885,-9.8984,-9.922,-9.9428,-9.9453,-9.9541,-9.9627,-9.9643,-9.9224,-9.9169,-9.9116,-9.9044,-9.9644,-9.9645,-10.0073,-10.0077,-10.008]},{"header":{"parameterUnit":"m.s-1","parameterCategory":1,"la1":30.2991,"la2":30.254,"lo1":-89.0895,"lo2":-89.0444,"dy":0.0017,"dx":0.0017,"nx":28,"ny":28,"refTime":"2023-11-14T09:00:00:Z","depth":0,"parameterNumber":3,"parameterNumberName":"V-component_of_WINDS"},"data":[0,0,0,0,0,0,0,0,0,0,0,0,0,0,0,0,0,0,0,0,0,0,0,0,0,0,0,0,0,0,0,0,0,0,0,0,0,0,0,0,0,0,0,0,0,0,0,0,0,0,0,0,0,0,0,0,0,0,-4.7599,-4.7596,0,-4.7291,-4.7287,-4.7284,-4.7079,-4.7078,-4.7077,-4.7076,-4.6753,-4.6746,-4.6738,0,0,0,0,0,0,0,0,0,0,0,0,0,-4.8004,-4.7998,-4.76,-4.7596,-4.7592,-4.7291,-4.7287,-4.7283,-4.708,-4.7078,-4.7076,-4.7075,-4.6755,-4.6747,-4.6738,0,0,0,0,0,0,0,0,0,0,0,0,0,-4.7775,-4.7996,-4.76,-4.7455,-4.7438,-4.7292,-4.7287,-4.7282,-4.708,-4.7078,-4.7076,-4.7074,-4.6758,-4.6747,-4.6736,-4.6709,0,0,-4.6703,-4.6698,0,0,0,0,0,0,0,0,-4.7788,-4.776,-4.748,-4.7464,-4.7446,-4.7222,-4.7311,-4.7089,-4.7081,-4.7216,-4.7075,-4.7073,-4.691,-4.6886,-4.6833,-4.6694,-4.668,-4.6702,-4.6695,-4.669,-4.6687,0,0,0,0,0,0,0,-4.7804,-4.7773,-4.7477,-4.7476,-4.7455,-4.7401,-4.7367,-4.7268,-4.7078,-4.7204,-4.7188,-4.7155,-4.69,-4.6844,-4.6824,-4.6675,-4.6702,-4.6692,-4.6686,-4.6681,-4.6491,-4.6492,0,0,0,0,0,0,-4.7844,-4.7787,-4.7487,-4.7468,-4.7616,-4.7396,-4.7357,-4.7296,-4.7078,-4.7043,-4.7157,-4.7147,-4.6864,-4.6837,-4.6811,-4.676,-4.6691,-4.668,-4.6674,-4.6489,-4.6491,-4.6493,0,0,0,0,0,0,-4.7854,-4.782,-4.7499,-4.7623,-4.7578,-4.7391,-4.7324,-4.7291,-4.7234,-4.7043,-4.7007,-4.7135,-4.6861,-4.6827,-4.6735,-4.6746,-4.6675,-4.6665,-4.6487,-4.649,-4.6492,-4.6661,0,0,0,0,0,0,-4.7866,-4.7824,-4.7815,-4.7625,-4.7573,-4.7432,-4.7325,-4.7286,-4.7216,-4.72,-4.7013,-4.698,-4.6857,-4.6752,-4.6724,-4.673,-4.6657,-4.6485,-4.6489,-4.6491,-4.6653,-4.6669,-4.6682,0,0,0,0,0,-4.7882,-4.7874,-4.7815,-4.778,-4.7557,-4.7433,-4.7403,-4.7263,-4.7218,-4.7204,-4.7081,-4.6986,-4.675,-4.6745,-4.6711,-4.6714,-4.6484,-4.6488,-4.6491,-4.6647,-4.6666,-4.6682,0,0,0,0,0,0,-4.8069,-4.7847,-4.7779,-4.771,-4.7592,-4.7399,-4.7378,-4.7288,-4.7179,-4.7168,-4.6997,-4.6956,-4.688,-4.6788,-4.6786,-4.6672,-4.6605,-4.6602,-4.6736,-4.6752,-4.6766,-4.6788,-4.6647,0,0,0,0,0,-4.8103,-4.8024,-4.7832,-4.779,-4.7734,-4.7567,-4.7508,-4.741,-4.728,-4.7228,-4.7098,-4.6973,-4.687,-4.6806,-4.6701,-4.6639,-4.6593,-4.6624,-4.6639,-4.6651,-4.6649,-4.6604,-4.6614,-4.6504,-4.6504,-4.6504,0,0,-4.8171,-4.804,-4.8,-4.7824,-4.7721,-4.7639,-4.7526,-4.7445,-4.7381,-4.7215,-4.712,-4.702,-4.6869,-4.6791,-4.6749,-4.6711,-4.667,-4.6655,-4.6667,-4.6658,-4.6609,-4.6619,-4.6629,-4.6507,-4.6506,-4.6506,0,0,-4.8253,-4.8148,-4.8098,-4.7997,-4.7843,-4.7731,-4.7719,-4.7538,-4.7466,-4.7368,-4.724,-4.716,-4.6988,-4.6884,-4.6808,-4.6847,-4.6753,-4.6817,-4.689,-4.6848,-4.6857,-4.6864,-4.6873,-4.6879,-4.6817,-4.6817,-4.6818,0,-4.8356,-4.823,-4.8084,-4.8009,-4.7934,-4.7781,-4.7727,-4.7635,-4.7454,-4.7404,-4.7364,-4.7141,-4.7029,-4.6922,-4.6931,-4.6877,-4.6854,-4.6837,-4.6868,-4.6873,-4.6877,-4.6884,-4.6889,-4.6826,-4.6825,-4.6824,-4.6823,0,-4.8363,-4.8277,-4.8255,-4.8085,-4.8007,-4.7944,-4.7784,-4.7722,-4.7631,-4.7522,-4.7421,-4.7281,-4.7142,-4.711,-4.702,-4.6988,-4.6968,-4.6901,-4.683,-4.6899,-4.6902,-4.6904,-4.6838,-4.6835,-4.6832,-4.683,0,0,-4.8554,-4.8302,-4.8296,-4.8215,-4.8032,-4.7961,-4.7888,-4.7754,-4.7702,-4.7582,-4.7513,-4.737,-4.7304,-4.7219,-4.7116,-4.708,-4.7113,-4.7014,-4.7008,-4.7034,-4.7063,-4.7113,-4.7119,-4.705,-4.705,-4.705,-4.7074,0,-4.8605,-4.847,-4.8334,-4.8245,-4.8161,-4.8013,-4.7948,-4.7827,-4.7723,-4.7633,-4.7516,-4.7416,-4.734,-4.7287,-4.7244,-4.7118,-4.7116,-4.7115,-4.698,-4.6978,-4.702,-4.7121,-4.7174,-4.7203,-4.7075,-4.7075,-4.7075,0,-4.8647,-4.8533,-4.8437,-4.8257,-4.8217,-4.8162,-4.8026,-4.7944,-4.7801,-4.7727,-4.7631,-4.7521,-4.7432,-4.7373,-4.7246,-4.7248,-4.7185,-4.7114,-4.7112,-4.7091,-4.7029,-4.7099,-4.721,-4.7213,-4.7076,-4.7076,-4.7076,0,-4.8791,-4.8614,-4.8532,-4.8467,-4.8258,-4.8222,-4.8132,-4.7987,-4.7914,-4.7794,-4.7744,-4.7616,-4.7544,-4.7445,-4.7302,-4.7273,-4.7188,-4.7118,-4.712,-4.7123,-4.7107,-4.7109,-4.7205,-4.7073,-4.7073,-4.7073,-4.7073,0,-4.8861,-4.8806,-4.8593,-4.8543,-4.8475,-4.8318,-4.8255,-4.8151,-4.8024,-4.7947,-4.7811,-4.7741,-4.7558,-4.7465,-4.7352,-4.726,-4.723,-4.7165,-4.7134,-4.7175,-4.7183,-4.7129,-4.7122,-4.7074,-4.7073,-4.7073,-4.7073,0,-4.901,-4.8866,-4.8765,-4.8575,-4.8525,-4.8484,-4.8318,-4.826,-4.8148,-4.8052,-4.802,-4.7842,-4.7725,-4.7573,-4.7408,-4.7332,-4.7252,-4.7208,-4.7301,-4.7283,-4.7292,-4.7292,-4.7354,-4.7352,-4.7227,-4.7228,-4.7229,0,-4.9062,-4.9016,-4.882,-4.876,-4.8675,-4.858,-4.8504,-4.8347,-4.8273,-4.8105,-4.8066,-4.794,-4.7829,-4.7648,-4.7502,-4.7374,-4.7323,-4.7353,-4.7302,-4.7343,-4.7318,-4.7321,-4.7313,-4.7365,-4.7368,-4.7369,-4.7371,0,-4.9169,-4.9099,-4.8996,-4.8868,-4.8781,-4.8672,-4.8556,-4.8514,-4.8331,-4.8254,-4.8134,-4.8049,-4.7879,-4.7753,-4.7605,-4.7508,-4.7407,-4.7388,-4.7381,-4.742,-4.7474,-4.744,-4.7332,-4.7387,-4.7385,-4.7384,-4.7383,-4.7383,-4.9267,-4.9218,-4.9072,-4.896,-4.8857,-4.8751,-4.8687,-4.8566,-4.8463,-4.8314,-4.8227,-4.8108,-4.7961,-4.7752,-4.7659,-4.7561,-4.7523,-4.7514,-4.7511,-4.751,-4.7521,-4.7493,-4.7534,-4.7533,-4.7533,-4.7532,-4.7532,0,-4.9363,-4.9261,-4.9161,-4.9003,-4.8914,-4.883,-4.8696,-4.8627,-4.8525,-4.8398,-4.8292,-4.815,-4.8026,-4.787,-4.7734,-4.7685,-4.7635,-4.7654,-4.7654,-4.7632,-4.7565,-4.7583,-4.7697,-4.7697,-4.7697,-4.7697,-4.7697,-4.7697,-4.9402,-4.9313,-4.9226,-4.9082,-4.8978,-4.8863,-4.8793,-4.8693,-4.859,-4.8439,-4.8336,-4.8235,-4.8094,-4.7946,-4.7827,-4.7783,-4.7738,-4.777,-4.7713,-4.7653,-4.7638,-4.7624,-4.764,-4.7763,-4.7763,-4.7787,-4.7787,-4.7787]}]]